Location: Barcelona
(41.3830°N, 2.1830°E)
Time: 19:16:54
(UTC+02:00)

NOAA 15 - Visible Passes

Search period start: 15 October 2019 00:00
Search period end: 25 October 2019 00:00
Orbit: 798 x 812 km, 98.7° (Epoch: 15 October)

Date Brightness Start Highest point End Pass type
(mag) Time Alt. Az. Time Alt. Az. Time Alt. Az.
15 Oct 5.3 20:42:01 10° S 20:47:11 55° W 20:52:26 10° NNW visible
16 Oct 4.6 20:16:48 10° SSE 20:22:06 88° ENE 20:27:27 10° NNW visible
16 Oct 7.7 22:01:06 10° WSW 22:02:33 11° W 22:03:58 10° WNW visible
17 Oct 4.7 19:51:58 10° SE 19:57:06 53° ENE 20:02:16 10° N visible
17 Oct 7.1 21:33:23 10° SW 21:37:10 20° W 21:40:58 10° NW visible
18 Oct 5.3 19:27:33 10° SE 19:32:11 32° ENE 19:36:51 10° N visible
18 Oct 6.3 21:07:08 10° SSW 21:11:52 33° W 21:16:39 10° NNW visible
19 Oct 5.3 20:41:30 10° S 20:46:41 56° W 20:51:56 10° NNW visible
20 Oct 4.6 20:16:17 10° SSE 20:21:35 87° ENE 20:26:57 10° NNW visible
20 Oct 7.7 22:00:27 10° WSW 22:02:01 11° W 22:03:36 10° WNW visible
21 Oct 4.8 19:51:28 10° SE 19:56:35 52° ENE 20:01:45 10° N visible
21 Oct 7.1 21:32:49 10° SW 21:36:38 20° W 21:40:30 10° NW visible
22 Oct 5.3 19:27:03 10° SE 19:31:41 32° ENE 19:36:20 10° N visible
22 Oct 6.3 21:06:36 10° SSW 21:11:22 33° W 21:16:11 10° NNW visible
23 Oct 8.2 07:44:35 10° ENE 07:45:43 11° E 07:46:50 10° E visible
23 Oct 5.2 20:40:59 10° S 20:46:11 57° W 20:51:26 10° NNW visible
24 Oct 4.5 20:15:47 10° SSE 20:21:05 86° ENE 20:26:27 10° NNW visible
24 Oct 7.6 21:59:48 10° WSW 22:01:30 11° W 22:03:13 10° WNW visible
